WZZ21WX EPGD-ENHD

Flight info

Callsign WZZ21WX
Flight time 1h 50m
Altitude 36000
Route VAPOS N133 PENOR DCT KOTAM DCT VADIN DCT GOTEX DCT AMSEV DCT RIVEX
Aircraft A321/M-SDE3FGHIRWY/LB1

Departure

Time 2026-05-06 16:38
Airport Gdańsk Lech Wałęsa Airport (EPGD)

Arrival

Time 2026-05-06 18:28
Airport Haugesund Airport, Karmøy (ENHD)
Time Latitude Longitude Altitude Speed Heading
2026-05-06 16:17 54.38156 18.46442 460 ft 0 kts 23°
2026-05-06 16:20 54.38156 18.46441 460 ft 0 kts 23°
2026-05-06 16:27 54.38155 18.46441 460 ft 1 kts 23°
2026-05-06 16:27 54.38133 18.46429 460 ft 4 kts 359°
2026-05-06 16:27 54.38111 18.46440 460 ft 4 kts 305°
2026-05-06 16:28 54.38107 18.46452 460 ft 1 kts 293°
2026-05-06 16:34 54.38117 18.46407 460 ft 7 kts 290°
2026-05-06 16:34 54.38145 18.46291 460 ft 13 kts 294°
2026-05-06 16:34 54.38172 18.46148 460 ft 12 kts 254°
2026-05-06 16:34 54.38111 18.46049 458 ft 13 kts 229°
2026-05-06 16:35 54.38114 18.45904 456 ft 14 kts 292°
2026-05-06 16:35 54.38153 18.45727 455 ft 16 kts 272°
2026-05-06 16:35 54.38130 18.45661 453 ft 1 kts 220°
2026-05-06 16:35 54.38115 18.45653 455 ft 5 kts 188°
2026-05-06 16:36 54.38054 18.45604 454 ft 13 kts 217°
2026-05-06 16:36 54.38060 18.45421 456 ft 19 kts 304°
2026-05-06 16:36 54.38129 18.45261 459 ft 9 kts 258°
2026-05-06 16:36 54.38102 18.45256 459 ft 6 kts 133°
2026-05-06 16:37 54.38061 18.45389 456 ft 18 kts 110°
2026-05-06 16:37 54.38006 18.45618 456 ft 29 kts 112°
2026-05-06 16:37 54.37832 18.46327 456 ft 101 kts 113°
2026-05-06 16:37 54.37471 18.47783 508 ft 157 kts 112°
2026-05-06 16:38 54.37032 18.49505 1190 ft 157 kts 111°
2026-05-06 16:38 54.36593 18.51219 1882 ft 158 kts 110°
2026-05-06 16:38 54.36146 18.53047 2242 ft 176 kts 110°
2026-05-06 16:38 54.35641 18.55121 2509 ft 200 kts 111°
2026-05-06 16:39 54.35073 18.57439 2777 ft 222 kts 111°
2026-05-06 16:39 54.34456 18.59927 3418 ft 229 kts 112°
2026-05-06 16:39 54.33867 18.62484 4206 ft 233 kts 103°
2026-05-06 16:39 54.33808 18.65250 4938 ft 236 kts 77°
2026-05-06 16:40 54.34452 18.67837 5671 ft 239 kts 51°
2026-05-06 16:40 54.35694 18.69718 6412 ft 241 kts 25°
2026-05-06 16:40 54.37241 18.70855 7124 ft 245 kts 20°
2026-05-06 16:40 54.38849 18.71975 7700 ft 254 kts 20°
2026-05-06 16:41 54.40496 18.73128 7816 ft 257 kts 21°
2026-05-06 16:41 54.42155 18.74298 7833 ft 258 kts 21°
2026-05-06 16:41 54.43821 18.75479 7841 ft 259 kts 22°
2026-05-06 16:41 54.45467 18.76617 7838 ft 258 kts 16°
2026-05-06 16:42 54.47229 18.76800 7837 ft 254 kts 345°
2026-05-06 16:42 54.48788 18.75427 7869 ft 261 kts 313°
2026-05-06 16:42 54.49758 18.72720 8225 ft 275 kts 286°
2026-05-06 16:42 54.50374 18.69546 8866 ft 283 kts 289°
2026-05-06 16:43 54.51119 18.66381 9607 ft 288 kts 291°
2026-05-06 16:43 54.51928 18.63176 10141 ft 301 kts 291°
2026-05-06 16:43 54.52798 18.59758 10485 ft 318 kts 291°
2026-05-06 16:43 54.53690 18.56229 11130 ft 324 kts 291°
2026-05-06 16:44 54.54582 18.52632 11861 ft 328 kts 290°
2026-05-06 16:44 54.55470 18.48996 12594 ft 330 kts 290°
2026-05-06 16:44 54.56355 18.45323 13317 ft 333 kts 289°
2026-05-06 16:44 54.57227 18.41656 14004 ft 336 kts 289°
2026-05-06 16:45 54.58112 18.37912 14667 ft 338 kts 289°
2026-05-06 16:45 54.59002 18.34132 15314 ft 341 kts 289°
2026-05-06 16:45 54.59902 18.30320 15942 ft 345 kts 289°
2026-05-06 16:45 54.60810 18.26475 16573 ft 347 kts 289°
2026-05-06 16:46 54.61724 18.22596 17189 ft 351 kts 289°
2026-05-06 16:46 54.62645 18.18683 17811 ft 353 kts 289°
2026-05-06 16:46 54.63678 18.14804 18397 ft 359 kts 297°
2026-05-06 16:46 54.65130 18.11253 18952 ft 366 kts 308°
2026-05-06 16:47 54.66819 18.07935 19518 ft 369 kts 308°
2026-05-06 16:47 54.68498 18.04624 20047 ft 372 kts 308°
2026-05-06 16:47 54.70210 18.01233 20586 ft 376 kts 308°
2026-05-06 16:47 54.71935 17.97811 21116 ft 379 kts 308°
2026-05-06 16:48 54.73675 17.94345 21642 ft 382 kts 308°
2026-05-06 16:48 54.75425 17.90857 22155 ft 385 kts 308°
2026-05-06 16:48 54.77196 17.87324 22669 ft 389 kts 308°
2026-05-06 16:48 54.79132 17.83994 23136 ft 395 kts 317°
2026-05-06 16:49 54.81419 17.81273 23610 ft 402 kts 328°
2026-05-06 16:49 54.83968 17.79168 24092 ft 407 kts 333°
2026-05-06 16:49 54.86529 17.77169 24542 ft 410 kts 333°
2026-05-06 16:49 54.89144 17.75122 24994 ft 413 kts 333°
2026-05-06 16:50 54.91763 17.73058 25453 ft 415 kts 333°
2026-05-06 16:50 54.94400 17.70970 25880 ft 417 kts 333°
2026-05-06 16:50 54.97054 17.68865 26298 ft 420 kts 333°
2026-05-06 16:50 54.98818 17.67473 26568 ft 421 kts 333°
2026-05-06 16:51 55.02422 17.64696 27102 ft 424 kts 334°
2026-05-06 16:51 55.05139 17.62639 27486 ft 426 kts 334°
2026-05-06 16:51 55.07875 17.60575 27858 ft 429 kts 334°
2026-05-06 16:51 55.10617 17.58497 28227 ft 431 kts 334°
2026-05-06 16:52 55.13369 17.56398 28591 ft 433 kts 334°
2026-05-06 16:52 55.16101 17.54304 28942 ft 435 kts 334°
2026-05-06 16:52 55.18881 17.52160 29291 ft 437 kts 334°
2026-05-06 16:52 55.21669 17.50006 29640 ft 439 kts 334°
2026-05-06 16:53 55.24466 17.47819 29980 ft 441 kts 334°
2026-05-06 16:53 55.27273 17.45594 30311 ft 443 kts 334°
2026-05-06 16:53 55.30093 17.43338 30619 ft 445 kts 334°
2026-05-06 16:53 55.32916 17.41074 30920 ft 447 kts 334°
2026-05-06 16:54 55.35752 17.38798 31214 ft 450 kts 334°
2026-05-06 16:54 55.38604 17.36510 31534 ft 451 kts 334°
2026-05-06 16:54 55.41449 17.34226 31927 ft 450 kts 334°
2026-05-06 16:54 55.44298 17.31937 32315 ft 449 kts 334°
2026-05-06 16:55 55.46177 17.30428 32560 ft 448 kts 334°
2026-05-06 16:55 55.49017 17.28148 32926 ft 448 kts 334°
2026-05-06 16:55 55.51825 17.25888 33282 ft 447 kts 334°
2026-05-06 16:55 55.54662 17.23600 33637 ft 447 kts 334°
2026-05-06 16:56 55.57485 17.21314 33976 ft 446 kts 332°
2026-05-06 16:56 55.60160 17.18549 34295 ft 443 kts 321°
2026-05-06 16:56 55.62474 17.15087 34611 ft 439 kts 312°
2026-05-06 16:56 55.64442 17.10970 34916 ft 436 kts 302°
2026-05-06 16:57 55.65995 17.06380 35210 ft 433 kts 293°
2026-05-06 16:57 55.67157 17.01480 35482 ft 431 kts 289°
2026-05-06 16:57 55.68260 16.96532 35761 ft 431 kts 289°
2026-05-06 16:57 55.69356 16.91590 35922 ft 431 kts 289°
2026-05-06 16:58 55.70440 16.86693 35952 ft 421 kts 289°
2026-05-06 16:58 55.72569 16.77091 35962 ft 417 kts 289°
2026-05-06 16:59 55.74675 16.67520 35962 ft 416 kts 289°
2026-05-06 16:59 55.76753 16.58001 35961 ft 416 kts 289°
2026-05-06 17:00 55.78852 16.48385 35963 ft 417 kts 289°
2026-05-06 17:00 55.80948 16.38761 35968 ft 418 kts 289°
2026-05-06 17:01 55.83034 16.29115 35975 ft 418 kts 289°
2026-05-06 17:01 55.85112 16.19456 35975 ft 418 kts 289°
2026-05-06 17:02 55.87180 16.09777 35975 ft 418 kts 289°
2026-05-06 17:02 55.89242 16.00075 35974 ft 419 kts 289°
2026-05-06 17:03 55.91289 15.90423 35973 ft 419 kts 289°
2026-05-06 17:03 55.93343 15.80701 35973 ft 419 kts 289°
2026-05-06 17:04 55.95394 15.70956 35972 ft 419 kts 288°
2026-05-06 17:04 55.97427 15.61214 35973 ft 419 kts 288°
2026-05-06 17:05 55.99450 15.51454 35972 ft 419 kts 288°
2026-05-06 17:05 56.01468 15.41692 35976 ft 419 kts 288°
2026-05-06 17:06 56.03481 15.31941 35977 ft 418 kts 288°
2026-05-06 17:06 56.05485 15.22183 35977 ft 417 kts 288°
2026-05-06 17:07 56.07476 15.12434 35973 ft 417 kts 288°
2026-05-06 17:07 56.09456 15.02681 35973 ft 416 kts 288°
2026-05-06 17:08 56.11407 14.93012 35974 ft 416 kts 287°
2026-05-06 17:08 56.13465 14.83334 35973 ft 417 kts 294°
2026-05-06 17:09 56.16418 14.74339 35974 ft 418 kts 298°
2026-05-06 17:09 56.19418 14.65403 35974 ft 417 kts 298°
2026-05-06 17:10 56.22395 14.56458 35977 ft 417 kts 298°
2026-05-06 17:10 56.25368 14.47495 35980 ft 418 kts 298°
2026-05-06 17:11 56.28333 14.38512 35982 ft 417 kts 298°
2026-05-06 17:11 56.31289 14.29526 35978 ft 417 kts 298°
2026-05-06 17:12 56.34245 14.20518 35987 ft 417 kts 298°
2026-05-06 17:12 56.37170 14.11580 35977 ft 416 kts 298°
2026-05-06 17:13 56.40108 14.02564 35976 ft 416 kts 298°
2026-05-06 17:13 56.43038 13.93540 35978 ft 416 kts 298°
2026-05-06 17:14 56.45960 13.84495 35975 ft 416 kts 297°
2026-05-06 17:14 56.48875 13.75435 35971 ft 416 kts 298°
2026-05-06 17:15 56.51787 13.66381 35971 ft 415 kts 297°
2026-05-06 17:15 56.54662 13.57389 35969 ft 415 kts 297°
2026-05-06 17:16 56.57544 13.48329 35967 ft 415 kts 297°
2026-05-06 17:16 56.60420 13.39270 35967 ft 414 kts 297°
2026-05-06 17:17 56.63289 13.30180 35970 ft 414 kts 297°
2026-05-06 17:17 56.66152 13.21085 35970 ft 414 kts 297°
2026-05-06 17:18 56.68986 13.12043 35968 ft 414 kts 296°
2026-05-06 17:18 56.71835 13.02926 35963 ft 413 kts 297°
2026-05-06 17:19 56.74667 12.93824 35964 ft 413 kts 296°
2026-05-06 17:19 56.77500 12.84695 35963 ft 413 kts 296°
2026-05-06 17:20 56.80315 12.75576 35961 ft 413 kts 296°
2026-05-06 17:20 56.83114 12.66440 35962 ft 412 kts 296°
2026-05-06 17:21 56.85855 12.57229 35963 ft 412 kts 295°
2026-05-06 17:21 56.88544 12.47980 35960 ft 412 kts 295°
2026-05-06 17:22 56.91223 12.38721 35961 ft 412 kts 295°
2026-05-06 17:22 56.93896 12.29529 35963 ft 411 kts 295°
2026-05-06 17:23 56.96585 12.20267 35962 ft 411 kts 295°
2026-05-06 17:23 56.99260 12.10991 35962 ft 411 kts 295°
2026-05-06 17:24 57.01921 12.01721 35963 ft 410 kts 295°
2026-05-06 17:24 57.04567 11.92453 35963 ft 409 kts 294°
2026-05-06 17:25 57.07194 11.83230 35964 ft 409 kts 294°
2026-05-06 17:25 57.09824 11.73957 35964 ft 408 kts 294°
2026-05-06 17:26 57.12442 11.64682 35967 ft 408 kts 294°
2026-05-06 17:26 57.15061 11.55394 35967 ft 408 kts 294°
2026-05-06 17:27 57.17659 11.46157 35966 ft 408 kts 294°
2026-05-06 17:27 57.20261 11.36852 35964 ft 407 kts 294°
2026-05-06 17:28 57.22845 11.27538 35963 ft 407 kts 294°
2026-05-06 17:28 57.25419 11.18223 35963 ft 407 kts 294°
2026-05-06 17:29 57.27971 11.08963 35960 ft 406 kts 294°
2026-05-06 17:29 57.30531 10.99637 35958 ft 406 kts 294°
2026-05-06 17:30 57.33076 10.90313 35958 ft 406 kts 294°
2026-05-06 17:30 57.35616 10.80988 35966 ft 406 kts 294°
2026-05-06 17:31 57.38153 10.71651 35970 ft 405 kts 293°
2026-05-06 17:31 57.40679 10.62302 35972 ft 404 kts 293°
2026-05-06 17:32 57.43185 10.52962 35972 ft 405 kts 293°
2026-05-06 17:32 57.45693 10.43616 35975 ft 405 kts 293°
2026-05-06 17:33 57.48177 10.34314 35978 ft 404 kts 293°
2026-05-06 17:33 57.50669 10.24946 35976 ft 404 kts 293°
2026-05-06 17:34 57.53160 10.15495 35969 ft 407 kts 292°
2026-05-06 17:34 57.55645 10.06092 35971 ft 403 kts 292°
2026-05-06 17:35 57.58107 9.96710 35971 ft 402 kts 292°
2026-05-06 17:35 57.60545 9.87339 35971 ft 402 kts 292°
2026-05-06 17:36 57.64210 9.73265 35973 ft 402 kts 292°
2026-05-06 17:36 57.66627 9.63932 35979 ft 402 kts 292°
2026-05-06 17:37 57.69058 9.54505 35989 ft 402 kts 292°
2026-05-06 17:37 57.71484 9.45038 35992 ft 403 kts 292°
2026-05-06 17:38 57.73903 9.35566 35993 ft 403 kts 292°
2026-05-06 17:38 57.76304 9.26140 35988 ft 403 kts 292°
2026-05-06 17:39 57.78707 9.16643 35991 ft 403 kts 292°
2026-05-06 17:39 57.81097 9.07148 35986 ft 402 kts 292°
2026-05-06 17:40 57.83472 8.97653 35984 ft 402 kts 292°
2026-05-06 17:40 57.85851 8.88145 35990 ft 402 kts 292°
2026-05-06 17:41 57.88225 8.78629 35983 ft 402 kts 292°
2026-05-06 17:41 57.90588 8.69096 35939 ft 403 kts 291°
2026-05-06 17:42 57.91367 8.65937 35763 ft 402 kts 291°
2026-05-06 17:42 57.92918 8.59629 35433 ft 400 kts 291°
2026-05-06 17:42 57.94085 8.54877 35184 ft 400 kts 291°
2026-05-06 17:42 57.95248 8.50126 34937 ft 399 kts 291°
2026-05-06 17:43 57.96408 8.45380 34687 ft 399 kts 291°
2026-05-06 17:43 57.97564 8.40649 34435 ft 398 kts 291°
2026-05-06 17:43 57.98723 8.35910 34189 ft 397 kts 291°
2026-05-06 17:43 57.99489 8.32770 34015 ft 397 kts 291°
2026-05-06 17:44 58.00637 8.28054 33761 ft 396 kts 291°
2026-05-06 17:44 58.01784 8.23323 33530 ft 396 kts 290°
2026-05-06 17:44 58.02930 8.18573 33273 ft 396 kts 290°
2026-05-06 17:44 58.04067 8.13834 33018 ft 396 kts 290°
2026-05-06 17:45 58.05205 8.09103 32772 ft 396 kts 290°
2026-05-06 17:45 58.06346 8.04367 32524 ft 394 kts 290°
2026-05-06 17:45 58.07482 7.99647 32269 ft 393 kts 290°
2026-05-06 17:45 58.08590 7.95009 32022 ft 391 kts 290°
2026-05-06 17:46 58.09705 7.90336 31772 ft 389 kts 290°
2026-05-06 17:46 58.10816 7.85677 31528 ft 388 kts 290°
2026-05-06 17:46 58.11922 7.81034 31271 ft 386 kts 290°
2026-05-06 17:46 58.13019 7.76413 31019 ft 384 kts 290°
2026-05-06 17:47 58.14110 7.71806 30768 ft 382 kts 290°
2026-05-06 17:47 58.15193 7.67215 30518 ft 381 kts 290°
2026-05-06 17:47 58.16271 7.62640 30268 ft 379 kts 290°
2026-05-06 17:47 58.17341 7.58090 30030 ft 377 kts 290°
2026-05-06 17:48 58.18408 7.53560 29769 ft 375 kts 290°
2026-05-06 17:48 58.19453 7.49107 29517 ft 373 kts 290°
2026-05-06 17:48 58.20500 7.44614 29268 ft 372 kts 290°
2026-05-06 17:48 58.21538 7.40144 29018 ft 370 kts 290°
2026-05-06 17:49 58.22573 7.35680 28765 ft 368 kts 290°
2026-05-06 17:49 58.23602 7.31251 28512 ft 366 kts 290°
2026-05-06 17:49 58.24627 7.26838 28264 ft 364 kts 290°
2026-05-06 17:49 58.25646 7.22434 28020 ft 363 kts 290°
2026-05-06 17:50 58.26658 7.18059 27762 ft 361 kts 290°
2026-05-06 17:50 58.27662 7.13700 27516 ft 359 kts 290°
2026-05-06 17:50 58.28662 7.09358 27264 ft 358 kts 290°
2026-05-06 17:50 58.29657 7.05025 27013 ft 356 kts 290°
2026-05-06 17:51 58.30643 7.00727 26763 ft 354 kts 290°
2026-05-06 17:51 58.31615 6.96476 26514 ft 353 kts 290°
2026-05-06 17:51 58.32587 6.92203 26263 ft 352 kts 290°
2026-05-06 17:51 58.33554 6.87946 26013 ft 350 kts 290°
2026-05-06 17:52 58.34519 6.83700 25762 ft 348 kts 290°
2026-05-06 17:52 58.35480 6.79468 25511 ft 347 kts 290°
2026-05-06 17:52 58.36432 6.75254 25255 ft 345 kts 290°
2026-05-06 17:52 58.37379 6.71044 25005 ft 344 kts 290°
2026-05-06 17:53 58.38316 6.66872 24778 ft 341 kts 290°
2026-05-06 17:53 58.39242 6.62753 24468 ft 335 kts 290°
2026-05-06 17:53 58.40148 6.58733 24092 ft 332 kts 290°
2026-05-06 17:53 58.41071 6.54706 23646 ft 331 kts 294°
2026-05-06 17:54 58.42322 6.51007 23218 ft 333 kts 307°
2026-05-06 17:54 58.43866 6.47716 22782 ft 333 kts 309°
2026-05-06 17:54 58.45423 6.44436 22343 ft 332 kts 309°
2026-05-06 17:54 58.46972 6.41162 21897 ft 331 kts 309°
2026-05-06 17:55 58.48510 6.37898 21454 ft 330 kts 309°
2026-05-06 17:55 58.50086 6.34706 20838 ft 335 kts 317°
2026-05-06 17:55 58.52051 6.32141 19924 ft 346 kts 325°
2026-05-06 17:55 58.54100 6.29696 19008 ft 348 kts 325°
2026-05-06 17:56 58.56132 6.27292 18101 ft 340 kts 326°
2026-05-06 17:56 58.58108 6.24960 17157 ft 335 kts 326°
2026-05-06 17:56 58.60100 6.22604 16139 ft 330 kts 326°
2026-05-06 17:56 58.62038 6.20295 15246 ft 324 kts 326°
2026-05-06 17:57 58.63888 6.18087 14901 ft 302 kts 326°
2026-05-06 17:57 58.65602 6.16043 14581 ft 289 kts 326°
2026-05-06 17:57 58.67304 6.14003 14229 ft 287 kts 325°
2026-05-06 17:57 58.68995 6.11965 13889 ft 285 kts 325°
2026-05-06 17:58 58.70672 6.09942 13548 ft 283 kts 326°
2026-05-06 17:58 58.72339 6.07930 13222 ft 282 kts 326°
2026-05-06 17:58 58.73994 6.05937 12875 ft 280 kts 326°
2026-05-06 17:58 58.75644 6.03954 12542 ft 278 kts 326°
2026-05-06 17:59 58.77281 6.01982 12206 ft 277 kts 326°
2026-05-06 17:59 58.78905 6.00022 11868 ft 275 kts 326°
2026-05-06 17:59 58.80529 5.98058 11537 ft 274 kts 326°
2026-05-06 17:59 58.82138 5.96113 11206 ft 272 kts 326°
2026-05-06 18:00 58.83739 5.94170 10872 ft 271 kts 326°
2026-05-06 18:00 58.85330 5.92239 10547 ft 270 kts 327°
2026-05-06 18:00 58.86918 5.90309 10216 ft 269 kts 327°
2026-05-06 18:00 58.88499 5.88383 9880 ft 268 kts 327°
2026-05-06 18:01 58.90075 5.86465 9559 ft 267 kts 327°
2026-05-06 18:01 58.91642 5.84557 9234 ft 266 kts 327°
2026-05-06 18:01 58.93202 5.82660 8910 ft 264 kts 328°
2026-05-06 18:01 58.94754 5.80768 8585 ft 263 kts 327°
2026-05-06 18:02 58.96294 5.78879 8266 ft 261 kts 327°
2026-05-06 18:02 58.97805 5.77026 7949 ft 260 kts 327°
2026-05-06 18:02 58.99337 5.75153 7630 ft 259 kts 327°
2026-05-06 18:02 59.00878 5.73266 7288 ft 267 kts 327°
2026-05-06 18:03 59.02452 5.71329 6929 ft 268 kts 327°
2026-05-06 18:03 59.04025 5.69395 6579 ft 267 kts 327°
2026-05-06 18:03 59.05591 5.67468 6238 ft 266 kts 327°
2026-05-06 18:03 59.07149 5.65543 5879 ft 265 kts 327°
2026-05-06 18:04 59.08704 5.63624 5528 ft 265 kts 327°
2026-05-06 18:04 59.10257 5.61710 5178 ft 264 kts 327°
2026-05-06 18:04 59.11808 5.59796 4825 ft 263 kts 327°
2026-05-06 18:05 59.14817 5.56076 4151 ft 260 kts 327°
2026-05-06 18:05 59.16334 5.54200 3800 ft 258 kts 327°
2026-05-06 18:05 59.17825 5.52350 3444 ft 249 kts 327°
2026-05-06 18:05 59.19261 5.50559 3099 ft 240 kts 327°
2026-05-06 18:06 59.20540 5.48728 2996 ft 220 kts 315°
2026-05-06 18:06 59.21565 5.46665 3013 ft 199 kts 314°
2026-05-06 18:06 59.22500 5.44800 3005 ft 190 kts 314°
2026-05-06 18:06 59.23414 5.42993 3003 ft 184 kts 314°
2026-05-06 18:07 59.24321 5.41196 2775 ft 185 kts 314°
2026-05-06 18:07 59.25217 5.39421 2525 ft 182 kts 314°
2026-05-06 18:07 59.26092 5.37690 2308 ft 174 kts 314°
2026-05-06 18:07 59.26901 5.36089 2087 ft 156 kts 314°
2026-05-06 18:08 59.27623 5.34654 1862 ft 142 kts 313°
2026-05-06 18:08 59.28282 5.33342 1682 ft 129 kts 314°
2026-05-06 18:08 59.28898 5.32111 1475 ft 125 kts 313°
2026-05-06 18:08 59.29496 5.30895 1328 ft 124 kts 313°
2026-05-06 18:09 59.30095 5.29697 1149 ft 123 kts 314°
2026-05-06 18:09 59.30695 5.28516 1024 ft 122 kts 313°
2026-05-06 18:09 59.31288 5.27312 835 ft 123 kts 314°
2026-05-06 18:09 59.31882 5.26122 641 ft 122 kts 314°
2026-05-06 18:10 59.32474 5.24933 488 ft 122 kts 314°
2026-05-06 18:10 59.33071 5.23746 343 ft 123 kts 313°
2026-05-06 18:10 59.33666 5.22559 158 ft 122 kts 313°
2026-05-06 18:10 59.34249 5.21369 167 ft 129 kts 314°
2026-05-06 18:11 59.34869 5.20080 796 ft 117 kts 311°
2026-05-06 18:11 59.35358 5.18976 662 ft 115 kts 308°
2026-05-06 18:11 59.35972 5.17463 1034 ft 151 kts 309°
2026-05-06 18:11 59.36668 5.15800 1859 ft 163 kts 309°
2026-05-06 18:12 59.37378 5.14090 2750 ft 158 kts 309°
2026-05-06 18:12 59.38044 5.12475 3381 ft 156 kts 309°
2026-05-06 18:12 59.38807 5.10690 3448 ft 182 kts 311°
2026-05-06 18:12 59.39665 5.08832 3433 ft 180 kts 313°
2026-05-06 18:13 59.40502 5.07040 3443 ft 180 kts 311°
2026-05-06 18:13 59.41167 5.04945 3446 ft 181 kts 284°
2026-05-06 18:13 59.41024 5.02547 3447 ft 185 kts 244°
2026-05-06 18:13 59.40088 5.00856 3477 ft 188 kts 202°
2026-05-06 18:14 59.38802 5.00427 3732 ft 189 kts 185°
2026-05-06 18:14 59.37483 5.00297 3937 ft 191 kts 183°
2026-05-06 18:14 59.36152 5.00197 4003 ft 191 kts 183°
2026-05-06 18:14 59.34826 5.00102 4003 ft 191 kts 182°
2026-05-06 18:15 59.33499 5.00004 4010 ft 191 kts 182°
2026-05-06 18:15 59.32172 4.99909 4004 ft 191 kts 182°
2026-05-06 18:15 59.30847 4.99814 4000 ft 191 kts 183°
2026-05-06 18:15 59.29471 4.99712 4022 ft 206 kts 183°
2026-05-06 18:16 59.28054 5.00223 3991 ft 212 kts 152°
2026-05-06 18:16 59.26915 5.02040 4010 ft 213 kts 135°
2026-05-06 18:16 59.25893 5.04122 3999 ft 212 kts 133°
2026-05-06 18:16 59.24883 5.06235 4006 ft 213 kts 133°
2026-05-06 18:17 59.23874 5.08349 4003 ft 213 kts 133°
2026-05-06 18:17 59.22864 5.10463 4006 ft 213 kts 133°
2026-05-06 18:17 59.21853 5.12576 4007 ft 213 kts 133°
2026-05-06 18:17 59.20842 5.14688 4007 ft 213 kts 133°
2026-05-06 18:18 59.19832 5.16797 4005 ft 213 kts 133°
2026-05-06 18:18 59.18819 5.18909 4004 ft 213 kts 133°
2026-05-06 18:18 59.17806 5.21022 4007 ft 213 kts 133°
2026-05-06 18:18 59.16793 5.23132 4019 ft 213 kts 133°
2026-05-06 18:19 59.15780 5.25240 4019 ft 213 kts 133°
2026-05-06 18:19 59.14765 5.27352 4005 ft 213 kts 133°
2026-05-06 18:19 59.13753 5.29456 3964 ft 210 kts 133°
2026-05-06 18:19 59.12761 5.31525 3544 ft 210 kts 133°
2026-05-06 18:20 59.11764 5.33597 3115 ft 209 kts 133°
2026-05-06 18:20 59.10772 5.35653 3007 ft 209 kts 133°
2026-05-06 18:20 59.09777 5.37745 3018 ft 211 kts 128°
2026-05-06 18:20 59.09162 5.40296 3016 ft 210 kts 100°
2026-05-06 18:21 59.09263 5.43078 3018 ft 207 kts 69°
2026-05-06 18:21 59.10048 5.45345 3008 ft 202 kts 39°
2026-05-06 18:21 59.11275 5.46554 3005 ft 198 kts 11°
2026-05-06 18:21 59.12636 5.46972 3005 ft 198 kts
2026-05-06 18:22 59.13994 5.47384 3006 ft 197 kts
2026-05-06 18:22 59.15305 5.47791 3010 ft 180 kts
2026-05-06 18:22 59.16509 5.48170 3011 ft 179 kts
2026-05-06 18:22 59.17752 5.48559 3020 ft 182 kts
2026-05-06 18:23 59.19010 5.48846 3020 ft 182 kts 358°
2026-05-06 18:23 59.20247 5.48382 3016 ft 182 kts 339°
2026-05-06 18:23 59.21326 5.47124 3008 ft 182 kts 319°
2026-05-06 18:23 59.22208 5.45401 3013 ft 182 kts 314°
2026-05-06 18:24 59.23106 5.43621 3011 ft 181 kts 314°
2026-05-06 18:24 59.23980 5.41888 2872 ft 181 kts 315°
2026-05-06 18:24 59.24848 5.40171 2614 ft 171 kts 314°
2026-05-06 18:24 59.25641 5.38599 2391 ft 152 kts 314°
2026-05-06 18:25 59.26352 5.37186 2186 ft 142 kts 314°
2026-05-06 18:25 59.27042 5.35818 1996 ft 141 kts 314°
2026-05-06 18:25 59.27728 5.34451 1841 ft 140 kts 315°
2026-05-06 18:25 59.28400 5.33084 1706 ft 138 kts 314°
2026-05-06 18:26 59.29046 5.31716 1467 ft 136 kts 313°
2026-05-06 18:26 59.29683 5.30356 1265 ft 135 kts 313°
2026-05-06 18:26 59.30318 5.29006 1069 ft 134 kts 314°
2026-05-06 18:26 59.31035 5.27833 903 ft 135 kts 319°
2026-05-06 18:27 59.31683 5.26505 751 ft 135 kts 313°
2026-05-06 18:27 59.32340 5.25192 563 ft 135 kts 315°
2026-05-06 18:27 59.33001 5.23896 371 ft 134 kts 315°
2026-05-06 18:27 59.33654 5.22579 173 ft 135 kts 315°
2026-05-06 18:28 59.34276 5.21341 89 ft 113 kts 314°
2026-05-06 18:28 59.34736 5.20418 81 ft 79 kts 314°
2026-05-06 18:28 59.34924 5.20042 66 ft 23 kts 314°
2026-05-06 18:28 59.35010 5.19870 68 ft 16 kts 314°
2026-05-06 18:29 59.35056 5.19795 64 ft 2 kts 33°
2026-05-06 18:29 59.35049 5.19815 68 ft 2 kts 134°
2026-05-06 18:29 59.35017 5.19867 63 ft 14 kts 140°
2026-05-06 18:29 59.34938 5.20016 66 ft 16 kts 133°
2026-05-06 18:30 59.34857 5.20176 70 ft 16 kts 135°
2026-05-06 18:30 59.34778 5.20333 76 ft 17 kts 134°
2026-05-06 18:30 59.34698 5.20496 83 ft 17 kts 134°
2026-05-06 18:30 59.34611 5.20670 84 ft 18 kts 134°
2026-05-06 18:31 59.34519 5.20855 81 ft 20 kts 135°
2026-05-06 18:31 59.34423 5.21045 83 ft 20 kts 135°
2026-05-06 18:31 59.34344 5.21232 89 ft 13 kts 101°
2026-05-06 18:31 59.34384 5.21368 93 ft 12 kts 49°
2026-05-06 18:32 59.34396 5.21497 89 ft 11 kts 115°
2026-05-06 18:32 59.34410 5.21587 87 ft 4 kts 47°
2026-05-06 18:32 59.34418 5.21603 87 ft 2 kts 45°
2026-05-06 18:32 59.34419 5.21605 90 ft 0 kts 45°